Time,TemperatureF,DewpointF,PressureIn,WindDirection,WindDirectionDegrees,WindSpeedMPH,WindSpeedGustMPH,Humidity,HourlyPrecipIn,Conditions,Clouds,dailyrainin,SolarRadiationWatts/m^2,SoftwareType,DateUTC
2013-01-14 00:14:00,-8.1,-14.0,30.19,South,178,0.0,2.0,76,0.00,,,0.00,0,weatherlink.com 1.10,2013-01-14 07:14:00,
2013-01-14 00:29:00,-7.2,-13.0,30.19,SSE,161,1.0,4.0,77,0.00,,,0.00,0,weatherlink.com 1.10,2013-01-14 07:29:00,
2013-01-14 00:44:00,-7.1,-13.0,30.19,SSE,155,3.0,3.0,75,0.00,,,0.00,0,weatherlink.com 1.10,2013-01-14 07:44:00,
2013-01-14 00:59:00,-6.8,-13.0,30.19,SE,146,2.0,5.0,75,0.00,,,0.00,0,weatherlink.com 1.10,2013-01-14 07:59:00,
2013-01-14 01:14:00,-7.0,-13.0,30.18,SSE,148,1.0,3.0,75,0.00,,,0.00,0,weatherlink.com 1.10,2013-01-14 08:14:00,
2013-01-14 01:29:00,-7.1,-13.0,30.18,SSE,148,0.0,2.0,75,0.00,,,0.00,0,weatherlink.com 1.10,2013-01-14 08:29:00,
2013-01-14 01:45:00,-7.3,-14.0,30.19,SSE,148,0.0,1.0,74,0.00,,,0.00,0,weatherlink.com 1.10,2013-01-14 08:45:00,
2013-01-14 01:59:00,-7.1,-14.0,30.19,SSE,148,0.0,0.0,73,0.00,,,0.00,0,weatherlink.com 1.10,2013-01-14 08:59:00,
2013-01-14 02:15:00,-7.3,-14.0,30.18,SSE,148,0.0,1.0,71,0.00,,,0.00,0,weatherlink.com 1.10,2013-01-14 09:15:00,
2013-01-14 02:30:00,-7.9,-15.0,30.18,SSE,148,0.0,1.0,72,0.00,,,0.00,0,weatherlink.com 1.10,2013-01-14 09:30:00,
2013-01-14 02:45:00,-7.5,-14.0,30.18,SSE,148,0.0,1.0,73,0.00,,,0.00,0,weatherlink.com 1.10,2013-01-14 09:45:00,
2013-01-14 03:00:00,-7.3,-14.0,30.19,SSE,148,0.0,0.0,71,0.00,,,0.00,0,weatherlink.com 1.10,2013-01-14 10:00:00,
2013-01-14 03:15:00,-7.5,-14.0,30.19,SSE,148,0.0,0.0,73,0.00,,,0.00,0,weatherlink.com 1.10,2013-01-14 10:15:00,
2013-01-14 03:30:00,-7.8,-14.0,30.18,SSE,148,1.0,2.0,73,0.00,,,0.00,0,weatherlink.com 1.10,2013-01-14 10:30:00,
2013-01-14 03:45:00,-7.9,-14.0,30.18,SSE,148,0.0,1.0,75,0.00,,,0.00,0,weatherlink.com 1.10,2013-01-14 10:45:00,
2013-01-14 04:00:00,-7.6,-14.0,30.18,SSE,148,0.0,1.0,75,0.00,,,0.00,0,weatherlink.com 1.10,2013-01-14 11:00:00,
2013-01-14 04:15:00,-7.5,-14.0,30.18,SSE,148,0.0,0.0,73,0.00,,,0.00,0,weatherlink.com 1.10,2013-01-14 11:15:00,
2013-01-14 04:30:00,-7.5,-14.0,30.18,SSE,148,0.0,1.0,74,0.00,,,0.00,0,weatherlink.com 1.10,2013-01-14 11:30:00,
2013-01-14 04:45:00,-7.4,-14.0,30.18,SSE,148,0.0,1.0,74,0.00,,,0.00,0,weatherlink.com 1.10,2013-01-14 11:45:00,
2013-01-14 05:00:00,-6.8,-14.0,30.18,SSE,148,0.0,0.0,72,0.00,,,0.00,0,weatherlink.com 1.10,2013-01-14 12:00:00,
2013-01-14 05:15:00,-6.7,-14.0,30.18,SSE,148,0.0,0.0,71,0.00,,,0.00,0,weatherlink.com 1.10,2013-01-14 12:15:00,
2013-01-14 05:30:00,-7.2,-15.0,30.18,SSE,148,0.0,0.0,70,0.00,,,0.00,0,weatherlink.com 1.10,2013-01-14 12:30:00,
2013-01-14 05:46:00,-7.5,-14.0,30.19,SSE,148,0.0,1.0,73,0.00,,,0.00,0,weatherlink.com 1.10,2013-01-14 12:46:00,
2013-01-14 06:01:00,-7.5,-14.0,30.19,SSE,148,0.0,0.0,72,0.00,,,0.00,0,weatherlink.com 1.10,2013-01-14 13:01:00,
2013-01-14 06:16:00,-7.9,-15.0,30.20,SSE,148,0.0,1.0,71,0.00,,,0.00,0,weatherlink.com 1.10,2013-01-14 13:16:00,
2013-01-14 06:31:00,-7.9,-14.0,30.20,SSE,148,0.0,0.0,73,0.00,,,0.00,0,weatherlink.com 1.10,2013-01-14 13:31:00,
2013-01-14 06:46:00,-7.2,-14.0,30.21,SSE,148,0.0,0.0,73,0.00,,,0.00,0,weatherlink.com 1.10,2013-01-14 13:46:00,
2013-01-14 07:01:00,-6.7,-14.0,30.21,SSE,148,0.0,0.0,72,0.00,,,0.00,0,weatherlink.com 1.10,2013-01-14 14:01:00,
2013-01-14 07:16:00,-6.4,-14.0,30.22,SSE,148,0.0,0.0,69,0.00,,,0.00,0,weatherlink.com 1.10,2013-01-14 14:16:00,
2013-01-14 07:31:00,-7.5,-15.0,30.23,SSE,148,0.0,0.0,71,0.00,,,0.00,5,weatherlink.com 1.10,2013-01-14 14:31:00,
2013-01-14 07:46:00,-7.5,-14.0,30.23,SSE,148,0.0,0.0,72,0.00,,,0.00,16,weatherlink.com 1.10,2013-01-14 14:46:00,
2013-01-14 08:01:00,-7.4,-14.0,30.24,SSE,148,0.0,0.0,74,0.00,,,0.00,32,weatherlink.com 1.10,2013-01-14 15:01:00,
2013-01-14 08:16:00,-7.2,-14.0,30.24,SSE,148,0.0,0.0,72,0.00,,,0.00,76,weatherlink.com 1.10,2013-01-14 15:16:00,
2013-01-14 08:31:00,-6.7,-13.0,30.24,SSE,148,0.0,1.0,75,0.00,,,0.00,91,weatherlink.com 1.10,2013-01-14 15:31:00,
2013-01-14 08:46:00,-4.7,-10.0,30.24,SSE,148,0.0,0.0,76,0.00,,,0.00,113,weatherlink.com 1.10,2013-01-14 15:46:00,
2013-01-14 09:01:00,-2.7,-9.0,30.23,SSE,148,0.0,0.0,73,0.00,,,0.00,135,weatherlink.com 1.10,2013-01-14 16:01:00,
2013-01-14 09:17:00,-1.6,-9.0,30.23,SSE,148,0.0,0.0,71,0.00,,,0.00,179,weatherlink.com 1.10,2013-01-14 16:17:00,
2013-01-14 09:32:00,0.4,-7.0,30.23,SSE,151,0.0,2.0,70,0.00,,,0.00,267,weatherlink.com 1.10,2013-01-14 16:32:00,
2013-01-14 09:47:00,1.1,-8.0,30.24,West,273,0.0,3.0,67,0.00,,,0.00,313,weatherlink.com 1.10,2013-01-14 16:47:00,
2013-01-14 10:02:00,1.9,-7.0,30.23,West,273,0.0,2.0,65,0.00,,,0.00,387,weatherlink.com 1.10,2013-01-14 17:02:00,
2013-01-14 10:17:00,3.2,-7.0,30.23,NW,317,1.0,2.0,64,0.00,,,0.00,439,weatherlink.com 1.10,2013-01-14 17:17:00,
2013-01-14 10:32:00,3.2,-7.0,30.23,NW,325,1.0,2.0,64,0.00,,,0.00,480,weatherlink.com 1.10,2013-01-14 17:32:00,
2013-01-14 10:47:00,4.4,-6.0,30.23,NW,323,1.0,2.0,61,0.00,,,0.00,504,weatherlink.com 1.10,2013-01-14 17:47:00,
2013-01-14 11:02:00,6.3,-6.0,30.22,NW,321,2.0,2.0,58,0.00,,,0.00,515,weatherlink.com 1.10,2013-01-14 18:02:00,
2013-01-14 11:17:00,6.8,-6.0,30.21,NW,323,0.0,2.0,57,0.00,,,0.00,552,weatherlink.com 1.10,2013-01-14 18:17:00,
2013-01-14 11:32:00,6.5,-6.0,30.20,WNW,302,1.0,4.0,57,0.00,,,0.00,566,weatherlink.com 1.10,2013-01-14 18:32:00,
2013-01-14 11:47:00,6.6,-5.0,30.18,West,275,0.0,4.0,58,0.00,,,0.00,578,weatherlink.com 1.10,2013-01-14 18:47:00,
2013-01-14 12:02:00,6.6,-5.0,30.17,NW,315,0.0,3.0,58,0.00,,,0.00,587,weatherlink.com 1.10,2013-01-14 19:02:00,
2013-01-14 12:17:00,7.7,-6.0,30.16,NW,304,2.0,4.0,55,0.00,,,0.00,594,weatherlink.com 1.10,2013-01-14 19:17:00,
2013-01-14 12:33:00,7.8,-5.0,30.15,WNW,297,1.0,3.0,57,0.00,,,0.00,592,weatherlink.com 1.10,2013-01-14 19:33:00,
2013-01-14 12:48:00,8.0,-5.0,30.15,NW,317,1.0,3.0,55,0.00,,,0.00,587,weatherlink.com 1.10,2013-01-14 19:48:00,
2013-01-14 13:03:00,9.6,-5.0,30.14,West,280,2.0,4.0,53,0.00,,,0.00,582,weatherlink.com 1.10,2013-01-14 20:03:00,
2013-01-14 13:18:00,10.8,-5.0,30.14,SSW,210,3.0,5.0,50,0.00,,,0.00,563,weatherlink.com 1.10,2013-01-14 20:18:00,
2013-01-14 13:33:00,10.5,-6.0,30.14,SSW,192,2.0,6.0,48,0.00,,,0.00,547,weatherlink.com 1.10,2013-01-14 20:33:00,
2013-01-14 13:48:00,9.9,-5.0,30.14,South,188,2.0,6.0,50,0.00,,,0.00,529,weatherlink.com 1.10,2013-01-14 20:48:00,
2013-01-14 14:03:00,8.9,-6.0,30.14,SSE,168,3.0,6.0,52,0.00,,,0.00,504,weatherlink.com 1.10,2013-01-14 21:03:00,
2013-01-14 14:18:00,9.1,-5.0,30.15,SW,228,3.0,5.0,53,0.00,,,0.00,246,weatherlink.com 1.10,2013-01-14 21:18:00,
2013-01-14 14:33:00,9.4,-6.0,30.16,West,268,2.0,7.0,51,0.00,,,0.00,95,weatherlink.com 1.10,2013-01-14 21:33:00,
2013-01-14 14:48:00,8.3,-6.0,30.16,West,263,1.0,4.0,53,0.00,,,0.00,144,weatherlink.com 1.10,2013-01-14 21:48:00,
2013-01-14 15:03:00,7.7,-6.0,30.17,WSW,250,0.0,3.0,55,0.00,,,0.00,125,weatherlink.com 1.10,2013-01-14 22:03:00,
2013-01-14 15:18:00,8.3,-5.0,30.17,SW,218,1.0,3.0,54,0.00,,,0.00,44,weatherlink.com 1.10,2013-01-14 22:18:00,
2013-01-14 15:33:00,6.9,-7.0,30.17,West,270,5.0,5.0,54,0.00,,,0.00,88,weatherlink.com 1.10,2013-01-14 22:33:00,
2013-01-14 15:48:00,6.7,-5.0,30.17,NW,311,0.0,1.0,60,0.00,,,0.00,63,weatherlink.com 1.10,2013-01-14 22:48:00,
2013-01-14 16:04:00,6.7,-3.0,30.18,West,273,1.0,3.0,64,0.00,,,0.00,35,weatherlink.com 1.10,2013-01-14 23:04:00,
2013-01-14 16:19:00,6.0,-4.0,30.18,West,268,0.0,2.0,65,0.00,,,0.00,39,weatherlink.com 1.10,2013-01-14 23:19:00,
2013-01-14 16:34:00,5.7,-4.0,30.18,WSW,239,0.0,1.0,65,0.00,,,0.00,25,weatherlink.com 1.10,2013-01-14 23:34:00,
2013-01-14 16:49:00,4.7,-5.0,30.18,WSW,257,0.0,1.0,65,0.00,,,0.00,9,weatherlink.com 1.10,2013-01-14 23:49:00,
2013-01-14 17:04:00,3.5,-6.0,30.19,West,268,1.0,3.0,65,0.00,,,0.00,0,weatherlink.com 1.10,2013-01-15 00:04:00,
2013-01-14 17:19:00,2.0,-7.0,30.20,West,279,1.0,5.0,66,0.00,,,0.00,0,weatherlink.com 1.10,2013-01-15 00:19:00,
2013-01-14 17:34:00,0.7,-8.0,30.20,WSW,253,0.0,2.0,68,0.00,,,0.00,0,weatherlink.com 1.10,2013-01-15 00:34:00,
2013-01-14 17:49:00,-0.4,-8.0,30.20,WSW,250,0.0,1.0,71,0.00,,,0.00,0,weatherlink.com 1.10,2013-01-15 00:49:00,
2013-01-14 18:04:00,-0.7,-7.0,30.21,WSW,245,0.0,1.0,73,0.00,,,0.00,0,weatherlink.com 1.10,2013-01-15 01:04:00,
2013-01-14 18:19:00,-0.9,-8.0,30.21,WSW,244,0.0,1.0,73,0.00,,,0.00,0,weatherlink.com 1.10,2013-01-15 01:19:00,
2013-01-14 18:34:00,-1.4,-9.0,30.22,WSW,244,0.0,0.0,71,0.00,,,0.00,0,weatherlink.com 1.10,2013-01-15 01:34:00,
2013-01-14 18:49:00,-2.7,-10.0,30.23,WSW,244,0.0,0.0,72,0.00,,,0.00,0,weatherlink.com 1.10,2013-01-15 01:49:00,
2013-01-14 19:04:00,-3.6,-11.0,30.23,WSW,244,0.0,0.0,71,0.00,,,0.00,0,weatherlink.com 1.10,2013-01-15 02:04:00,
2013-01-14 19:20:00,-3.6,-10.0,30.23,WSW,244,0.0,0.0,75,0.00,,,0.00,0,weatherlink.com 1.10,2013-01-15 02:20:00,
2013-01-14 19:35:00,-3.7,-10.0,30.23,WSW,244,0.0,2.0,74,0.00,,,0.00,0,weatherlink.com 1.10,2013-01-15 02:35:00,
2013-01-14 19:50:00,-2.9,-10.0,30.22,West,273,0.0,2.0,72,0.00,,,0.00,0,weatherlink.com 1.10,2013-01-15 02:50:00,
2013-01-14 20:05:00,-2.6,-10.0,30.23,West,273,0.0,1.0,71,0.00,,,0.00,0,weatherlink.com 1.10,2013-01-15 03:05:00,
2013-01-14 20:20:00,-2.9,-11.0,30.22,West,273,0.0,1.0,68,0.00,,,0.00,0,weatherlink.com 1.10,2013-01-15 03:20:00,
2013-01-14 20:35:00,-3.9,-12.0,30.22,West,273,0.0,1.0,68,0.00,,,0.00,0,weatherlink.com 1.10,2013-01-15 03:35:00,
2013-01-14 20:50:00,-4.3,-11.0,30.21,West,273,0.0,1.0,71,0.00,,,0.00,0,weatherlink.com 1.10,2013-01-15 03:50:00,
2013-01-14 21:05:00,-4.4,-12.0,30.21,West,273,1.0,1.0,71,0.00,,,0.00,0,weatherlink.com 1.10,2013-01-15 04:05:00,
2013-01-14 21:20:00,-4.3,-11.0,30.21,West,267,0.0,2.0,74,0.00,,,0.00,0,weatherlink.com 1.10,2013-01-15 04:20:00,
2013-01-14 21:35:00,-4.2,-11.0,30.21,WNW,284,0.0,3.0,72,0.00,,,0.00,0,weatherlink.com 1.10,2013-01-15 04:35:00,
2013-01-14 21:50:00,-4.3,-12.0,30.21,West,263,0.0,6.0,68,0.00,,,0.00,0,weatherlink.com 1.10,2013-01-15 04:50:00,
2013-01-14 22:05:00,-4.6,-13.0,30.21,WSW,257,0.0,3.0,67,0.00,,,0.00,0,weatherlink.com 1.10,2013-01-15 05:05:00,
2013-01-14 22:20:00,-4.7,-14.0,30.20,WNW,299,2.0,6.0,65,0.00,,,0.00,0,weatherlink.com 1.10,2013-01-15 05:20:00,
2013-01-14 22:35:00,-4.4,-14.0,30.20,SW,233,0.0,6.0,62,0.00,,,0.00,0,weatherlink.com 1.10,2013-01-15 05:35:00,
2013-01-14 22:51:00,-5.5,-16.0,30.21,NNW,330,0.0,1.0,61,0.00,,,0.00,0,weatherlink.com 1.10,2013-01-15 05:51:00,
2013-01-14 23:06:00,-6.9,-16.0,30.21,West,261,2.0,2.0,63,0.00,,,0.00,0,weatherlink.com 1.10,2013-01-15 06:06:00,
2013-01-14 23:21:00,-6.7,-16.0,30.21,WNW,302,0.0,4.0,63,0.00,,,0.00,0,weatherlink.com 1.10,2013-01-15 06:21:00,
2013-01-14 23:36:00,-6.9,-17.0,30.21,West,260,1.0,4.0,61,0.00,,,0.00,0,weatherlink.com 1.10,2013-01-15 06:36:00,
2013-01-14 23:51:00,-6.6,-17.0,30.21,West,268,3.0,4.0,61,0.00,,,0.00,0,weatherlink.com 1.10,2013-01-15 06:51:00,